Date String (YYYY-MM-DD hh:mm:ss) UTC,Instrument flags,Ambient pressure (hPa),Sample flow (lpm),Bypass flow (lpm),Sample temperature (°C),Ambient temperature (°C),ASC tube jacket temperature (°C),LED temperature (°C),Box temperature (°C),Sample RH (%),Span deviation,Mass concentration (μg/m³),Mass concentration (μg/m³),Mass concentration (μg/m³)
DateTimeUTC,F1_M11,P_M11,Q1_M11,Q2_M11,T1_M11,T2_M11,T3_M11,T4_M11,T5_M11,U1_M11,ZSPAN_M11,X0_M11,X2_M11,X1_M11
2022-10-19 08:00:00,,0832.8,5.01,0.00,27.6,26.0,00.0,36.5,29.4,09.4,0000.0,0006.88,0002.32,0001.66
2022-10-19 08:01:00,,0832.8,5.01,0.00,27.6,25.9,00.0,36.5,29.4,09.3,0000.0,0006.38,0002.34,0001.66
2022-10-19 08:02:00,,0832.8,4.99,0.00,27.6,25.9,00.0,36.5,29.3,09.4,0000.0,0006.57,0002.41,0001.67
2022-10-19 08:03:00,,0832.8,5.02,0.00,27.6,25.9,00.0,36.5,29.3,09.4,0000.0,0006.55,0002.41,0001.67
2022-10-19 08:04:00,,0832.8,5.00,0.00,27.6,25.9,00.0,36.5,29.3,09.3,0000.0,0006.53,0002.42,0001.67
2022-10-19 08:05:00,,0832.8,5.01,0.00,27.6,25.9,00.0,36.5,29.4,09.4,0000.0,0006.08,0002.41,0001.66
2022-10-19 08:06:00,,0832.8,5.01,0.00,27.6,25.9,00.0,36.5,29.4,09.3,0000.0,0005.41,0002.36,0001.66
2022-10-19 08:07:00,,0832.9,5.00,0.00,27.6,25.9,00.0,36.5,29.3,09.4,0000.0,0005.31,0002.35,0001.66
2022-10-19 08:08:00,,0832.8,4.99,0.00,27.6,25.9,00.0,36.5,29.3,09.4,0000.0,0005.36,0002.37,0001.65
2022-10-19 08:09:00,,0832.8,5.00,0.00,27.6,25.9,00.0,36.5,29.3,09.4,0000.0,0005.39,0002.38,0001.65
2022-10-19 08:10:00,,0832.8,4.99,0.00,27.6,25.9,00.0,36.5,29.3,09.4,0000.0,0005.47,0002.40,0001.64
2022-10-19 08:11:00,,0832.8,5.01,0.00,27.6,25.9,00.0,36.5,29.3,09.4,0000.0,0004.06,0002.38,0001.64
2022-10-19 08:12:00,,0832.8,5.01,0.00,27.5,25.9,00.0,36.5,29.3,09.4,0000.0,0003.53,0002.34,0001.64
2022-10-19 08:13:00,,0832.8,4.99,0.00,27.5,25.8,00.0,36.5,29.3,09.2,0000.0,0003.32,0002.27,0001.62
2022-10-19 08:14:00,,0832.8,4.99,0.00,27.5,25.9,00.0,36.4,29.3,09.2,0000.0,0003.18,0002.21,0001.60
2022-10-19 08:15:00,,0832.8,5.01,0.00,27.5,25.8,00.0,36.4,29.3,09.1,0000.0,0003.04,0002.13,0001.57
2022-10-19 08:16:00,,0832.8,5.00,0.00,27.5,25.8,00.0,36.4,29.3,09.0,0000.0,0003.50,0002.05,0001.55
2022-10-19 08:17:00,,0832.8,5.02,0.00,27.5,25.8,00.0,36.4,29.3,09.0,0000.0,0003.72,0002.07,0001.54
2022-10-19 08:18:00,,0832.7,5.00,0.00,27.5,25.8,00.0,36.4,29.3,09.2,0000.0,0003.71,0002.07,0001.54
2022-10-19 08:19:00,,0832.7,5.00,0.00,27.5,25.8,00.0,36.4,29.2,09.0,0000.0,0003.59,0002.01,0001.53
2022-10-19 08:20:00,,0832.7,4.99,0.00,27.5,25.8,00.0,36.4,29.2,08.9,0000.0,0003.53,0001.99,0001.53
2022-10-19 08:21:00,,0832.7,5.00,0.00,27.5,25.8,00.0,36.4,29.2,09.0,0000.0,0003.44,0001.96,0001.53
2022-10-19 08:22:00,,0832.8,4.98,0.00,27.5,25.8,00.0,36.4,29.2,09.0,0000.0,0003.55,0002.02,0001.53
2022-10-19 08:23:00,,0832.7,5.00,0.00,27.4,25.8,00.0,36.4,29.2,08.9,0000.0,0003.93,0002.04,0001.52
2022-10-19 08:24:00,,0832.7,5.00,0.00,27.4,25.7,00.0,36.4,29.2,08.9,0000.0,0004.30,0002.09,0001.52
2022-10-19 08:25:00,,0832.7,5.01,0.00,27.4,25.7,00.0,36.4,29.2,08.9,0000.0,0004.39,0002.11,0001.53
2022-10-19 08:26:00,,0832.8,5.01,0.00,27.4,25.7,00.0,36.4,29.1,08.8,0000.0,0004.38,0002.10,0001.52
2022-10-19 08:27:00,,0832.7,4.96,0.00,27.4,25.7,00.0,36.3,29.1,08.8,0000.0,0004.62,0002.06,0001.51
2022-10-19 08:28:00,,0832.7,5.01,0.00,27.4,25.7,00.0,36.3,29.1,08.6,0000.0,0004.62,0002.01,0001.48
2022-10-19 08:29:00,,0832.8,4.96,0.00,27.4,25.7,00.0,36.3,29.1,08.6,0000.0,0004.74,0001.96,0001.46
2022-10-19 08:30:00,,0832.8,5.01,0.00,27.4,25.7,00.0,36.3,29.1,08.6,0000.0,0004.74,0001.93,0001.43
2022-10-19 08:31:00,,0832.7,5.00,0.00,27.4,25.7,00.0,36.3,29.1,08.6,0000.0,0004.82,0001.89,0001.40
2022-10-19 08:32:00,,0832.7,5.01,0.00,27.4,25.7,00.0,36.3,29.1,08.6,0000.0,0004.79,0001.88,0001.38
2022-10-19 08:33:00,,0832.8,4.99,0.00,27.3,25.7,00.0,36.3,29.1,08.6,0000.0,0005.21,0001.81,0001.35
2022-10-19 08:34:00,,0832.8,4.99,0.00,27.3,25.7,00.0,36.3,29.1,08.5,0000.0,0004.99,0001.74,0001.32
2022-10-19 08:35:00,,0832.7,5.00,0.00,27.3,25.7,00.0,36.3,29.1,08.6,0000.0,0004.61,0001.65,0001.30
2022-10-19 08:36:00,,0832.7,5.00,0.00,27.3,25.7,00.0,36.3,29.2,08.6,0000.0,0004.73,0001.61,0001.27
2022-10-19 08:37:00,,0832.7,4.99,0.00,27.3,25.7,00.0,36.3,29.2,08.5,0000.0,0004.76,0001.60,0001.24
2022-10-19 08:38:00,,0832.8,4.99,0.00,27.3,25.7,00.0,36.2,29.1,08.6,0000.0,0003.98,0001.57,0001.24
2022-10-19 08:39:00,,0832.8,5.00,0.00,27.3,25.7,00.0,36.2,29.1,08.6,0000.0,0004.16,0001.56,0001.25
2022-10-19 08:40:00,,0832.8,5.02,0.00,27.3,25.7,00.0,36.2,29.2,08.6,0000.0,0003.97,0001.56,0001.24
2022-10-19 08:41:00,,0832.8,5.01,0.00,27.3,25.7,00.0,36.2,29.1,08.7,0000.0,0004.13,0001.60,0001.25
2022-10-19 08:42:00,,0832.8,5.01,0.00,27.3,25.7,00.0,36.2,29.1,08.5,0000.0,0004.04,0001.60,0001.25
2022-10-19 08:43:00,,0832.8,5.01,0.00,27.3,25.7,00.0,36.2,29.1,08.4,0000.0,0003.97,0001.57,0001.23
2022-10-19 08:44:00,,0832.8,5.02,0.00,27.3,25.7,00.0,36.2,29.1,08.4,0000.0,0003.31,0001.52,0001.22
2022-10-19 08:45:00,,0832.8,4.99,0.00,27.3,25.7,00.0,36.2,29.1,08.5,0000.0,0003.12,0001.51,0001.22
2022-10-19 08:46:00,,0832.8,5.02,0.00,27.3,25.7,00.0,36.2,29.1,08.6,0000.0,0002.99,0001.48,0001.21
2022-10-19 08:47:00,,0832.8,5.00,0.00,27.3,25.7,00.0,36.2,29.1,08.9,0000.0,0002.65,0001.45,0001.22
2022-10-19 08:48:00,,0832.7,5.02,0.00,27.3,25.7,00.0,36.2,29.1,08.7,0000.0,0002.62,0001.43,0001.23
2022-10-19 08:49:00,,0832.7,4.99,0.00,27.3,25.7,00.0,36.2,29.1,08.7,0000.0,0002.64,0001.43,0001.23
2022-10-19 08:50:00,,0832.7,5.01,0.00,27.3,25.7,00.0,36.2,29.1,08.6,0000.0,0002.25,0001.46,0001.22
2022-10-19 08:51:00,,0832.7,5.01,0.00,27.3,25.7,00.0,36.2,29.1,08.6,0000.0,0002.20,0001.47,0001.21
2022-10-19 08:52:00,,0832.7,5.02,0.00,27.3,25.7,00.0,36.2,29.1,08.6,0000.0,0002.00,0001.44,0001.21
2022-10-19 08:53:00,,0832.7,5.00,0.00,27.3,25.7,00.0,36.2,29.1,08.7,0000.0,0002.05,0001.45,0001.20
2022-10-19 08:54:00,,0832.7,5.00,0.00,27.3,25.6,00.0,36.2,29.1,08.5,0000.0,0002.18,0001.49,0001.20
2022-10-19 08:55:00,,0832.6,5.00,0.00,27.3,25.6,00.0,36.2,29.0,08.5,0000.0,0002.99,0001.52,0001.20
2022-10-19 08:56:00,,0832.6,5.00,0.00,27.3,25.6,00.0,36.2,29.0,08.4,0000.0,0003.11,0001.55,0001.19
2022-10-19 08:57:00,,0832.6,5.02,0.00,27.3,25.6,00.0,36.2,29.0,08.5,0000.0,0003.30,0001.57,0001.18
2022-10-19 08:58:00,,0832.6,4.99,0.00,27.3,25.6,00.0,36.1,29.0,08.6,0000.0,0003.36,0001.58,0001.16
2022-10-19 08:59:00,,0832.6,5.00,0.00,27.2,25.6,00.0,36.1,29.0,08.4,0000.0,0003.29,0001.58,0001.15
